This is the latest recevied weather packets stored in our database for station/object WX4ET. If no packets are shown the sender has not sent any weather packets the latest 1 day(s).
| Time | Temp. | Humidity | Pressure | Rain* | Wind** | Luminosity | Snow |
|---|---|---|---|---|---|---|---|
| 1778011096 | 24.44° C | 49% | 1007.2 hPa | 0 mm | 0.89 m/s, 285° | 447 W/m² | - |
| 1778010794 | 24.44° C | 53% | 1007.2 hPa | 0 mm | 0.45 m/s, 245° | 351 W/m² | - |
| 1778010490 | 24.44° C | 49% | 1007.6 hPa | 0 mm | 1.79 m/s, 264° | 230 W/m² | - |
| 1778010188 | 24.44° C | 48% | 1007.3 hPa | 0 mm | 1.34 m/s, 335° | 258 W/m² | - |
| 1778009883 | 25° C | 48% | 1007.5 hPa | 0 mm | 1.79 m/s, 260° | 333 W/m² | - |
| 1778009581 | 25° C | 48% | 1007.5 hPa | 0 mm | 1.79 m/s, 283° | 434 W/m² | - |
| 1778009279 | 25° C | 51% | 1007.5 hPa | 0 mm | 0.45 m/s, 276° | 390 W/m² | - |
| 1778008976 | 24.44° C | 50% | 1008 hPa | 0 mm | 1.34 m/s, 278° | 416 W/m² | - |
| 1778008674 | 23.89° C | 49% | 1007.7 hPa | 0 mm | 0.89 m/s, 16° | 353 W/m² | - |
| 1778008372 | 24.44° C | 49% | 1007.9 hPa | 0 mm | 0.45 m/s, 231° | 301 W/m² | - |
| 1778008068 | 24.44° C | 49% | 1008 hPa | 0 mm | 1.34 m/s, 283° | 278 W/m² | - |
| 1778007763 | 25° C | 49% | 1008.1 hPa | 0 mm | 2.24 m/s, 330° | 277 W/m² | - |
| 1778007460 | 25° C | 49% | 1008.2 hPa | 0 mm | 1.34 m/s, 281° | 465 W/m² | - |
| 1778007157 | 25° C | 49% | 1008.3 hPa | 0 mm | 1.34 m/s, 256° | 443 W/m² | - |
| 1778006852 | 25° C | 48% | 1008.2 hPa | 0 mm | 1.34 m/s, 301° | 403 W/m² | - |
| 1778006550 | 25° C | 48% | 1008.5 hPa | 0 mm | 0.45 m/s, 258° | 483 W/m² | - |
| 1778006247 | 24.44° C | 48% | 1008.3 hPa | 0 mm | 0.89 m/s, 273° | 456 W/m² | - |
| 1778005951 | 24.44° C | 49% | 1008.4 hPa | 0 mm | 1.34 m/s, 267° | 428 W/m² | - |
| 1778005641 | 25° C | 46% | 1008.1 hPa | 0 mm | 1.79 m/s, 295° | 467 W/m² | - |
| 1778005338 | 25° C | 46% | 1008.4 hPa | 0 mm | 2.24 m/s, 290° | 422 W/m² | - |
| 1778005034 | 25° C | 47% | 1008.5 hPa | 0 mm | 1.79 m/s, 341° | 474 W/m² | - |
| 1778004732 | 24.44° C | 49% | 1008.8 hPa | 0 mm | 1.79 m/s, 318° | 599 W/m² | - |
| 1778004428 | 25° C | 46% | 1009 hPa | 0 mm | 1.79 m/s, 291° | 620 W/m² | - |
| 1778004125 | 25° C | 46% | 1008.7 hPa | 0 mm | 2.68 m/s, 298° | 532 W/m² | - |
| 1778003821 | 25° C | 46% | 1009 hPa | 0 mm | 2.68 m/s, 268° | 493 W/m² | - |
* Rain latest hour (hover to see other rain measurements)
** Current wind speed in m/s (hover to see current wind gust speed)